Location: Unspecified
(0.0000°N, 0.0000°E)
Time: 08:28:12
(UTC+00:00)

METEOR M2 - Pass Details

Date: 28 May 2024
Orbit: 818 x 826 km, 98.4° (Epoch: 19 June)

Event Time Altitude Azimuth Distance (km) Brightness Sun altitude
Rises 04:53:18 0° 18° (NNE) 3,338 ? -14.9°
Reaches altitude 10° 04:55:39 10° 20° (NNE) 2,409 ? -14.3°
Maximum altitude 05:00:57 66° 102° (ESE) 893 ? -13.1°
Drops below altitude 10° 05:06:16 10° 184° (S) 2,424 ? -11.9°
Sets 05:08:39 0° 187° (S) 3,360 ? -11.3°
